Regional Weather Roundup
Issued by NWS

Home | Current Version | Previous Version | Graphics & Text | Print | Product List | Glossary On
Versions: 1 2 3 4 5 6 7 8 9 10 11 12 13 14 15 16 17 18 19 20 21 22 23 24 25 26 27 28 29 30 31 32 33 34 35 36 37 38 39 40 41 42 43 44 45 46 47 48 49 50
000
ASUS43 KDTX 020810
RWRMI
MICHIGAN HOURLY REGIONAL WEATHER ROUNDUP
NATIONAL WEATHER SERVICE DETROIT/PONTIAC MI
400 AM EDT SAT AUG 02 2014

NOTE: "FAIR" INDICATES FEW OR NO CLOUDS BELOW 12,000 FEET WITH NO
SIGNIFICANT WEATHER AND/OR OBSTRUCTION TO VISIBILITY.

MIZ047>049-052>055-059>063-066>070-074>076-081>083-020900-
SOUTHEAST LOWER MICHIGAN

CITY           SKY/WX    TMP DP  RH WIND       PRES   REMARKS
ADRIAN         CLOUDY    63  60  90 W5        30.11S
ALMA           CLEAR     56  55  96 CALM      30.12S FOG
ANN ARBOR      MOCLDY    60  57  89 CALM      30.09F
BAD AXE        PTCLDY    57  57 100 CALM      30.11S FOG
CARO           CLEAR     59  59 100 CALM      30.10S FOG
DETROIT CITY   CLEAR     68  61  78 CALM      30.08F
DETROIT        MOCLDY    65  62  90 CALM      30.09F FOG
FLINT          CLEAR     59  55  87 W5        30.10F
GROSSE ILE     PTCLDY    66  63  88 CALM      30.07F FOG
HILLSDALE      MOCLDY    60  60  99 CALM      30.12R
HOWELL         PTCLDY    59  56  91 CALM      30.10S

CITY           SKY/WX    TMP DP  RH WIND       PRES   REMARKS
JACKSON        PTCLDY    59  57  93 CALM      30.11S
LAMBERTVILLE   CLOUDY    64  59  82 W3        30.09S
LANSING        PTCLDY    56  54  93 CALM      30.11F
LAPEER         FAIR      58  57  96 CALM      30.10S FOG
MASON          CLEAR     57  56  96 CALM      30.11S FOG
MONROE         MOCLDY    63  61  94 CALM      30.07F FOG
MT. CLEMENS    CLEAR     61  61  99 N2        30.08S FOG
PONTIAC        PTCLDY    64  60  87 NW3       30.09F
PORT HOPE        N/A     63  60  90 CALM      30.09S
PORT HURON     PTCLDY    59  59 100 CALM      30.09F FOG
TRI CITIES     CLEAR     61  59  93 SW5       30.11S
TROY           PTCLDY    66  62  88 CALM      30.10S
SAGINAW HB     CLEAR     59  59 100 SE3       30.10S
$$
MIZ043>046-050>051-056>058-064>065-071>073-077>080-020900-
SOUTHWEST LOWER MICHIGAN

CITY           SKY/WX    TMP DP  RH WIND       PRES   REMARKS
BATTLE CREEK   CLEAR     61  57  87 CALM      30.11F
BENTON HARBOR  CLEAR     57  56  96 E3        30.08F FOG
BIG RAPIDS     CLEAR    N/A N/A N/A CALM      30.10S FOG
COLDWATER      PTCLDY    61  60  96 CALM      30.11S FOG
FREMONT        FAIR      55  55 100 CALM      30.09S
HOLLAND        CLEAR     59  57  93 CALM      30.10S FOG
GRAND RAPIDS   CLEAR     59  56  89 CALM      30.10F
IONIA          FAIR      55  54  97 CALM      30.10F FOG
KALAMAZOO      CLEAR     58  57  97 CALM      30.11S FOG
LUDINGTON      CLEAR     57  56  97 CALM      30.10R FOG
MARSHALL       CLEAR     54  53  96 CALM      30.11S FOG
MOUNT PLEASANT   N/A     55  54  95 CALM      30.11S FOG
MUSKEGON       CLEAR     59  55  87 CALM      30.09F FOG
SOUTH HAVEN    CLEAR     57  57 100 CALM      30.09S FOG
$$
MIZ016>042-020900-
NORTHERN LOWER MICHIGAN

CITY           SKY/WX    TMP DP  RH WIND       PRES   REMARKS
ALPENA         MOCLDY    57  55  93 CALM      30.11S
BEAVER ISLAND  PTCLDY    58  56  95 E3        30.10F
BELLAIRE       PTCLDY    56  55  94 CALM      30.09S FOG
CADILLAC       FOG       52  52  99 CALM      30.11R VSB 1/2
CHARLEVOIX     CLEAR     59  56  91 CALM      30.12S
FRANKFORT      PTCLDY    54  51  89 CALM      30.09S
GAYLORD        MOCLDY    59  56  89 CALM      30.12R
GRAYLING       FOG       54  54 100 CALM      30.12S VSB 1/2
HARBOR SPRINGS MOCLDY    59  54  82 N6        30.10S
HOUGHTON LAKE  FOG       55  55 100 CALM      30.12S VSB 1
MANISTEE       MOCLDY    57  55  94 E5        30.10S VSB 1
OSCODA         CLEAR     57  56  97 CALM      30.11R
PELLSTON       MOCLDY    51  50  96 CALM      30.11S
ROGERS CITY    MOCLDY    57  56  96 CALM      30.12S
TRAVERSE CITY  CLEAR     59  55  87 CALM      30.08S
$$
MIZ007>008-015-020900-
EASTERN UPPER MICHIGAN

CITY           SKY/WX    TMP DP  RH WIND       PRES   REMARKS
KINROSS        PTCLDY    55  54  94 CALM      30.12S
MACKINAC ISLAN PTCLDY    56  54  94 NE6       30.11S
NEWBERRY       MOCLDY    50  50  97 N12       30.12S
S. S. MARIE    CLEAR     53  49  86 CALM      30.12S
MUNISING         N/A     54  50  86 S6        30.10F
$$
MIZ004>006-011>014-085-020900-
CENTRAL UPPER MICHIGAN

CITY           SKY/WX    TMP DP  RH WIND       PRES   REMARKS
MANISTIQUE     CLOUDY    55  52  89 N5        30.10S
ESCANABA       PTCLDY    54  50  87 NE3       30.09F
MENOMINEE      CLEAR     61  57  88 CALM      30.08S
SAWYER-GWINN   CLEAR     52  48  85 CALM      30.11F
$$
MIZ001>003-009>011-084-020900-
WESTERN UPPER MICHIGAN

CITY           SKY/WX    TMP DP  RH WIND       PRES   REMARKS
IRON MOUNTAIN  PTCLDY    55  52  89 CALM      30.11S
HOUGHTON       CLEAR     51  47  86 CALM      30.12R
COPPER HARBOR    N/A     60  47  61 SW6       30.10R
IRONWOOD       PTCLDY    48  48 100 CALM      30.12R
$$

ABBREVIATIONS USED IN REMARKS
   TC - TEMPERATURE IN CELSIUS
  WCI - WIND CHILL INDEX
   HX - HEAT INDEX
  VSB - VISIBILITY



USA.gov is the U.S. government's official web portal to all federal, state and local government web resources and services.